Visibility
15.0 15.0 15.0 15.0 15.0 15.0 15.0 8.7 5.7 14.2 15.0 15.0 15.0 15.0 15.0 15.0 15.0 15.0 15.0 15.0 15.0 15.0 15.0 15.0 15.0 15.0 15.0 15.0 15.0 15.0 15.0 15.0 15.0 15.0 15.0 15.0 15.0 15.0 15.0 15.0 15.0 15.0 15.0 15.0 15.0 15.0 15.0
15.0 15.0 15.0 15.0 15.0 15.0 10.2 15.0 5.5 6.2 15.0 15.0 15.0 15.0 15.0 15.0 15.0 15.0 15.0 15.0 15.0 15.0 15.0 15.0 15.0 15.0 15.0 15.0 15.0 15.0 15.0 15.0 15.0 15.0 15.0 15.0 15.0 15.0 15.0 15.0 15.0 15.0 15.0 15.0 15.0 15.0 15.0
15.0 15.0 15.0 15.0 15.0 15.0 15.0 8.1 15.0 5.2 7.1 8.2 15.0 15.0 15.0 15.0 15.0 15.0 15.0 15.0 15.0 15.0 15.0 15.0 15.0 15.0 15.0 15.0 15.0 15.0 15.0 15.0 15.0 15.0 15.0 15.0 15.0 15.0 15.0 15.0 15.0 15.0 15.0 15.0 15.0 15.0 15.0
13.9 15.0 14.5 15.0 15.0 15.0 15.0 15.0 15.0 13.6 5.0 7.0 5.6 15.0 15.0 15.0 15.0 15.0 15.0 15.0 15.0 15.0 15.0 15.0 15.0 15.0 15.0 15.0 15.0 15.0 15.0 15.0 15.0 15.0 15.0 15.0 15.0 15.0 15.0 15.0 15.0 15.0 15.0 15.0 15.0 15.0 15.0
14.9 13.9 15.0 15.0 15.0 15.0 15.0 15.0 15.0 14.0 13.9 4.0 4.6 5.4 13.9 15.0 15.0 15.0 15.0 15.0 15.0 15.0 15.0 15.0 15.0 15.0 15.0 15.0 15.0 15.0 15.0 15.0 15.0 15.0 15.0 15.0 15.0 15.0 15.0 15.0 15.0 15.0 15.0 15.0 15.0 15.0 15.0
15.0 15.0 14.6 14.7 15.0 15.0 15.0 15.0 15.0 15.0 15.0 7.3 4.7 2.7 7.7 7.7 15.0 15.0 15.0 15.0 15.0 15.0 15.0 15.0 15.0 15.0 15.0 15.0 15.0 15.0 15.0 15.0 15.0 15.0 15.0 15.0 15.0 15.0 15.0 15.0 15.0 15.0 15.0 15.0 15.0 15.0 15.0
15.0 15.0 15.0 10.8 15.0 15.0 15.0 15.0 15.0 15.0 15.0 15.0 15.0 8.3 2.7 4.4 4.2 11.1 15.0 0.2 0.0 0.1 11.2 14.9 14.9 15.0 15.0 15.0 15.0 15.0 15.0 15.0 15.0 15.0 15.0 15.0 15.0 15.0 15.0 15.0 15.0 15.0 15.0 15.0 15.0 15.0 15.0
15.0 15.0 15.0 15.0 15.0 15.0 15.0 15.0 15.0 15.0 15.0 15.0 15.0 15.0 9.8 6.8 2.3 1.6 11.3 0.4 12.1 15.0 15.0 15.0 15.0 15.0 15.0 15.0 15.0 15.0 15.0 15.0 15.0 15.0 15.0 15.0 15.0 15.0 15.0 15.0 15.0 15.0 15.0 15.0 15.0 15.0 15.0
15.0 15.0 15.0 15.0 15.0 15.0 15.0 15.0 15.0 15.0 15.0 15.0 15.0 15.0 12.7 8.9 2.7 0.3 2.6 9.0 15.0 15.0 15.0 15.0 15.0 15.0 15.0 15.0 15.0 15.0 15.0 15.0 15.0 15.0 15.0 15.0 15.0 15.0 15.0 15.0 15.0 15.0 15.0 15.0 15.0 15.0 15.0
15.0 15.0 15.0 13.8 15.0 15.0 15.0 15.0 15.0 15.0 15.0 15.0 15.0 15.0 14.8 10.9 0.1 2.4 0.1 15.0 15.0 9.2 4.1 15.0 15.0 15.0 15.0 15.0 15.0 15.0 15.0 15.0 15.0 15.0 15.0 15.0 15.0 15.0 15.0 15.0 15.0 15.0 15.0 15.0 15.0 15.0 15.0
15.0 15.0 15.0 15.0 15.0 14.1 14.9 15.0 15.0 15.0 15.0 15.0 15.0 15.0 15.0 4.4 9.6 0.1 2.4 7.6 13.1 4.8 0.0 9.9 15.0 15.0 15.0 15.0 15.0 15.0 15.0 15.0 15.0 15.0 15.0 15.0 15.0 15.0 15.0 15.0 15.0 15.0 15.0 15.0 15.0 15.0 15.0
14.0 15.0 15.0 15.0 15.0 15.0 15.0 15.0 15.0 15.0 15.0 15.0 15.0 15.0 15.0 10.6 3.1 7.4 6.9 2.7 4.0 0.1 0.1 15.0 15.0 15.0 15.0 15.0 15.0 15.0 15.0 15.0 15.0 15.0 15.0 15.0 15.0 15.0 15.0 15.0 15.0 15.0 15.0 15.0 15.0 15.0 15.0
8.2 12.6 15.0 15.0 15.0 15.0 15.0 15.0 15.0 15.0 15.0 15.0 15.0 15.0 15.0 15.0 7.9 5.5 4.0 0.4 0.1 0.1 6.5 15.0 15.0 15.0 15.0 15.0 15.0 15.0 15.0 15.0 15.0 15.0 15.0 15.0 15.0 15.0 15.0 15.0 15.0 15.0 15.0 15.0 15.0 15.0 15.0
7.6 8.4 7.8 11.3 15.0 15.0 15.0 15.0 15.0 15.0 15.0 15.0 15.0 15.0 15.0 15.0 15.0 2.2 2.3 0.1 0.0 2.0 13.4 15.0 15.0 15.0 15.0 15.0 15.0 15.0 15.0 15.0 15.0 15.0 15.0 15.0 15.0 15.0 15.0 15.0 15.0 15.0 15.0 15.0 5.9 15.0 15.0
5.4 6.8 10.7 11.5 11.2 15.0 15.0 15.0 15.0 13.0 15.0 15.0 15.0 14.9 13.8 15.0 15.0 2.8 0.1 0.0 0.7 4.3 15.0 15.0 15.0 15.0 14.6 14.5 15.0 15.0 15.0 15.0 15.0 15.0 15.0 15.0 15.0 15.0 15.0 15.0 15.0 15.0 15.0 15.0 13.7 14.9 15.0
14.9 13.0 10.4 8.6 15.0 11.8 15.0 15.0 15.0 15.0 15.0 15.0 11.8 10.3 15.0 15.0 15.0 0.3 0.1 0.1 0.2 13.9 15.0 15.0 14.3 15.0 15.0 15.0 15.0 15.0 15.0 15.0 15.0 15.0 15.0 15.0 15.0 15.0 15.0 15.0 15.0 15.0 15.0 0.7 0.5 15.0 15.0
15.0 14.4 11.6 14.9 10.4 13.0 14.6 15.0 15.0 15.0 15.0 15.0 7.8 1.5 15.0 15.0 9.9 0.0 0.0 0.1 4.1 15.0 15.0 15.0 15.0 15.0 15.0 15.0 15.0 15.0 15.0 15.0 15.0 15.0 15.0 15.0 15.0 15.0 15.0 15.0 15.0 15.0 15.0 15.0 15.0 15.0 14.2
15.0 15.0 14.1 8.2 12.2 14.7 9.9 15.0 15.0 15.0 15.0 8.1 9.6 0.0 14.8 7.3 0.1 0.2 0.0 2.5 13.0 15.0 15.0 15.0 15.0 15.0 15.0 15.0 15.0 15.0 15.0 15.0 15.0 15.0 15.0 15.0 15.0 15.0 15.0 15.0 15.0 15.0 15.0 15.0 3.3 0.0 15.0
15.0 15.0 15.0 15.0 11.6 15.0 10.8 9.0 6.0 15.0 15.0 11.5 1.0 2.3 7.8 7.7 0.7 0.2 14.9 5.2 4.4 15.0 15.0 15.0 15.0 15.0 15.0 15.0 15.0 15.0 15.0 15.0 15.0 15.0 15.0 15.0 14.8 15.0 15.0 15.0 15.0 15.0 15.0 15.0 15.0 11.8 15.0
15.0 15.0 15.0 11.3 15.0 8.8 14.7 4.4 5.1 15.0 15.0 8.3 2.5 0.5 0.5 1.8 11.5 13.0 7.4 0.1 0.1 15.0 15.0 15.0 15.0 15.0 15.0 15.0 15.0 15.0 15.0 15.0 15.0 15.0 15.0 15.0 15.0 15.0 15.0 15.0 15.0 15.0 15.0 15.0 15.0 15.0 15.0
15.0 15.0 11.4 8.3 14.9 11.3 12.3 3.9 4.4 15.0 15.0 8.1 6.4 1.2 8.5 0.1 0.0 15.0 6.4 1.0 0.1 3.4 15.0 15.0 15.0 15.0 15.0 15.0 15.0 15.0 15.0 15.0 15.0 15.0 15.0 15.0 15.0 15.0 15.0 15.0 15.0 15.0 15.0 15.0 15.0 15.0 15.0
15.0 15.0 14.4 3.6 3.7 9.8 8.0 4.0 5.7 12.5 8.7 2.7 0.3 0.1 9.8 2.0 15.0 0.1 14.9 5.6 0.1 4.5 15.0 15.0 15.0 15.0 15.0 15.0 15.0 15.0 15.0 15.0 15.0 15.0 15.0 15.0 15.0 15.0 15.0 15.0 15.0 15.0 15.0 15.0 15.0 15.0 15.0
15.0 15.0 15.0 6.3 9.6 8.8 5.0 4.4 7.6 13.0 5.8 7.6 6.9 12.5 1.3 14.0 11.3 8.1 5.9 0.1 4.5 6.8 15.0 15.0 15.0 15.0 15.0 15.0 15.0 15.0 15.0 15.0 15.0 15.0 15.0 15.0 11.2 15.0 0.5 15.0 15.0 10.6 15.0 15.0 15.0 15.0 15.0
15.0 15.0 15.0 13.8 4.7 4.4 4.4 5.7 7.2 15.0 15.0 13.0 13.9 12.3 1.2 15.0 4.2 7.9 7.7 1.5 14.5 13.7 15.0 15.0 15.0 15.0 15.0 15.0 15.0 15.0 0.0 0.1 14.6 10.4 14.4 7.8 0.3 0.2 0.1 13.7 0.1 15.0 15.0 15.0 15.0 15.0 15.0
14.2 11.9 15.0 10.5 7.2 4.4 4.6 13.8 15.0 15.0 15.0 14.8 11.2 14.6 1.8 0.0 5.5 2.0 2.3 15.0 7.0 11.8 14.2 15.0 15.0 15.0 15.0 15.0 2.7 0.1 0.1 0.1 0.1 0.0 7.0 13.5 8.1 0.1 0.2 2.1 14.1 15.0 15.0 15.0 15.0 15.0 15.0
8.8 9.3 10.1 14.7 15.0 15.0 15.0 15.0 15.0 13.2 15.0 14.6 8.3 12.6 6.5 4.9 3.6 4.3 3.3 1.8 0.4 5.7 0.1 0.0 7.1 15.0 15.0 0.0 0.1 0.1 0.5 1.1 0.3 0.1 0.0 0.2 1.6 3.1 0.1 0.2 15.0 15.0 15.0 15.0 15.0 15.0 15.0
15.0 5.2 6.2 9.6 5.9 12.7 13.8 10.8 11.6 11.4 15.0 12.6 12.2 6.7 11.8 0.2 9.8 0.1 12.7 15.0 2.6 0.5 0.1 0.0 0.0 0.1 0.0 0.3 0.1 0.2 0.2 15.0 1.9 12.9 0.6 0.1 0.1 0.2 0.4 8.1 13.2 15.0 15.0 15.0 15.0 15.0 15.0
15.0 13.2 5.0 3.1 5.8 5.5 15.0 15.0 11.4 4.8 5.5 6.4 11.8 12.0 3.4 0.0 1.2 0.1 0.2 10.9 6.1 10.2 0.1 0.0 0.1 0.0 0.1 0.1 0.2 0.1 0.4 11.6 13.4 15.0 3.6 1.8 0.7 0.3 0.4 0.2 0.5 15.0 15.0 15.0 15.0 15.0 15.0
15.0 15.0 14.9 7.1 4.4 8.8 11.2 5.5 5.5 4.5 5.0 6.9 0.1 4.9 10.2 1.3 0.0 0.0 0.2 3.4 15.0 14.2 15.0 1.0 15.0 15.0 13.5 0.3 2.2 12.8 13.7 15.0 15.0 0.5 15.0 1.9 15.0 15.0 14.9 15.0 15.0 15.0 15.0 15.0 15.0 15.0 15.0